Weather History for Pampa, TX

Change the Weather History Date:

Wednesday, November 21, 2012

  Actual Average Record
Temperature  
Mean Temperature 54 °F -  
Max Temperature 69 °F 56 °F 81 °F (1966)
Min Temperature 39 °F 29 °F 17 °F (1975)
Degree Days  
Heating Degree Days 11    
Growing Degree Days 4 (Base 50)    
Moisture  
Dew Point 36 °F    
Average Humidity 53    
Maximum Humidity 87    
Minimum Humidity 23    
Precipitation  
Precipitation 0.00 in - - ()
Sea Level Pressure  
Sea Level Pressure 30.13 in    
Wind  
Wind Speed 15 mph (SSW)    
Max Wind Speed 29 mph    
Max Gust Speed 34 mph    
Visibility 10 miles    
Events      
Averages and records for this station are not official NWS values.
T = Trace of Precipitation, MM = Missing Value Source: NWS Daily Summary

Daily Weather History Graph

Daily Weather History Graph

Search for Another Location

Airport:

Trip Planner

Search our weather history database for the weather conditions in past years. The results will help you decide how hot, cold, wet, or windy it might be!

Date:

Astronomy

Nov. 21, 2012 Rise Set
Actual Time 7:26 AM CST 5:33 PM CST
Civil Twilight 6:58 AM CST 6:01 PM CST
Nautical Twilight 6:27 AM CST 6:32 PM CST
Astronomical Twilight 5:57 AM CST 7:02 PM CST
Moon 1:39 PM CST (11/21) 12:59 AM CST (11/21)
Length of Visible Light 11h 02m
Length of Day
10h 07m
First Quarter, 62% of the Moon is Illuminated
Nov 21
First Quarter
Nov 28
Full
Dec 6
Last Quarter
Dec 13
New
Dec 19
First Quarter

Hourly Weather History & Observations

Time (CST) Temp. Windchill Dew Point Humidity Pressure Visibility Wind Dir Wind Speed Gust Speed Precip Events Conditions
12:15 AM 44.6 °F 38.8 °F 33.8 °F 66% 30.23 in 10.0 mi South 11.5 mph - N/A   Clear
12:35 AM 44.6 °F 39.2 °F 33.8 °F 66% 30.23 in 10.0 mi South 10.4 mph - N/A   Clear
12:55 AM 42.8 °F 37.5 °F 33.8 °F 70% 30.23 in 10.0 mi South 9.2 mph - N/A   Clear
1:15 AM 41.0 °F 34.7 °F 33.8 °F 76% 30.22 in 10.0 mi South 10.4 mph - N/A   Clear
1:35 AM 39.2 °F 32.5 °F 32.0 °F 75% 30.22 in 10.0 mi SSW 10.4 mph - N/A   Clear
1:55 AM 41.0 °F 34.3 °F 33.8 °F 76% 30.22 in 10.0 mi SSW 11.5 mph - N/A   Clear
2:15 AM 39.2 °F 32.0 °F 33.8 °F 81% 30.22 in 10.0 mi SSW 11.5 mph - N/A   Clear
2:35 AM 42.8 °F 37.5 °F 35.6 °F 76% 30.22 in 10.0 mi South 9.2 mph - N/A   Clear
2:55 AM 41.0 °F 34.7 °F 35.6 °F 81% 30.22 in 10.0 mi South 10.4 mph - N/A   Clear
3:15 AM 39.2 °F 32.0 °F 33.8 °F 81% 30.22 in 10.0 mi SSW 11.5 mph - N/A   Clear
3:35 AM 39.2 °F 32.0 °F 35.6 °F 87% 30.21 in 10.0 mi SSW 11.5 mph - N/A   Clear
3:55 AM 39.2 °F 32.0 °F 33.8 °F 81% 30.21 in 10.0 mi SSW 11.5 mph - N/A   Clear
4:15 AM 42.8 °F 36.6 °F 35.6 °F 76% 30.21 in 10.0 mi SSW 11.5 mph - N/A   Clear
4:35 AM 41.0 °F 34.3 °F 33.8 °F 76% 30.21 in 10.0 mi SSW 11.5 mph - N/A   Clear
4:55 AM 41.0 °F 33.5 °F 35.6 °F 81% 30.21 in 10.0 mi SSW 13.8 mph - N/A   Clear
5:15 AM 42.8 °F 36.6 °F 35.6 °F 76% 30.21 in 10.0 mi SSW 11.5 mph - N/A   Clear
5:35 AM 41.0 °F 33.9 °F 35.6 °F 81% 30.21 in 10.0 mi SSW 12.7 mph - N/A   Clear
6:15 AM 41.0 °F 34.3 °F 35.6 °F 81% 30.20 in 10.0 mi SSW 11.5 mph - N/A   Clear
6:35 AM 39.2 °F 32.0 °F 33.8 °F 81% 30.21 in 10.0 mi SSW 11.5 mph - N/A   Clear
6:55 AM 39.2 °F 31.6 °F 33.8 °F 81% 30.21 in 10.0 mi SSW 12.7 mph - N/A   Clear
7:15 AM 39.2 °F 32.0 °F 33.8 °F 81% 30.21 in 10.0 mi SSW 11.5 mph - N/A   Clear
7:35 AM 39.2 °F 31.6 °F 33.8 °F 81% 30.21 in 10.0 mi SSW 12.7 mph - N/A   Clear
7:55 AM 41.0 °F 33.5 °F 33.8 °F 76% 30.21 in 10.0 mi SSW 13.8 mph - N/A   Clear
8:15 AM 42.8 °F 35.4 °F 33.8 °F 70% 30.21 in 10.0 mi SSW 15.0 mph - N/A   Clear
8:35 AM 44.6 °F 37.8 °F 32.0 °F 61% 30.22 in 10.0 mi SSW 15.0 mph - N/A   Clear
8:55 AM 50.0 °F - 32.0 °F 50% 30.22 in 10.0 mi SSW 17.3 mph - N/A   Clear
9:15 AM 51.8 °F - 32.0 °F 47% 30.22 in 10.0 mi SSW 15.0 mph - N/A   Clear
9:35 AM 53.6 °F - 32.0 °F 44% 30.21 in 10.0 mi SSW 16.1 mph - N/A   Clear
9:55 AM 59.0 °F - 32.0 °F 36% 30.21 in 10.0 mi SSW 19.6 mph 25.3 mph N/A   Clear
10:15 AM 60.8 °F - 32.0 °F 34% 30.21 in 10.0 mi SSW 23.0 mph 28.8 mph N/A   Clear
10:35 AM 62.6 °F - 32.0 °F 32% 30.20 in 10.0 mi SSW 20.7 mph 27.6 mph N/A   Clear
10:55 AM 66.2 °F - 30.2 °F 26% 30.19 in 10.0 mi SSW 21.9 mph - N/A   Clear
11:15 AM 66.2 °F - 30.2 °F 26% 30.19 in 10.0 mi SSW 26.5 mph 32.2 mph N/A   Clear
11:35 AM 68.0 °F - 30.2 °F 24% 30.18 in 10.0 mi SSW 25.3 mph 32.2 mph N/A   Clear
11:55 AM 68.0 °F - 28.4 °F 23% 30.17 in 10.0 mi SSW 20.7 mph 29.9 mph N/A   Clear
12:15 PM 69.8 °F - 30.2 °F 23% 30.16 in 10.0 mi SSW 25.3 mph 33.4 mph N/A   Clear
12:35 PM 69.8 °F - 30.2 °F 23% 30.14 in 10.0 mi SSW 21.9 mph 32.2 mph N/A   Clear
12:55 PM 68.0 °F - 32.0 °F 26% 30.13 in 10.0 mi SSW 23.0 mph 26.5 mph N/A   Clear
1:15 PM 69.8 °F - 35.6 °F 28% 30.12 in 10.0 mi SW 23.0 mph 32.2 mph N/A   Clear
1:35 PM 69.8 °F - 35.6 °F 28% 30.11 in 10.0 mi SSW 20.7 mph 26.5 mph N/A   Clear
1:55 PM 69.8 °F - 35.6 °F 28% 30.10 in 10.0 mi SSW 20.7 mph 29.9 mph N/A   Clear
2:15 PM 69.8 °F - 35.6 °F 28% 30.08 in 10.0 mi SSW 28.8 mph 33.4 mph N/A   Clear
2:35 PM 69.8 °F - 35.6 °F 28% 30.08 in 10.0 mi SSW 23.0 mph 34.5 mph N/A   Clear
2:55 PM 68.0 °F - 37.4 °F 33% 30.07 in 10.0 mi SSW 21.9 mph 28.8 mph N/A   Clear
3:15 PM 68.0 °F - 37.4 °F 33% 30.07 in 10.0 mi SSW 21.9 mph 26.5 mph N/A   Clear
3:35 PM 68.0 °F - 37.4 °F 33% 30.07 in 10.0 mi South 24.2 mph 29.9 mph N/A   Clear
3:55 PM 69.8 °F - 37.4 °F 31% 30.06 in 10.0 mi South 20.7 mph 27.6 mph N/A   Clear
4:15 PM 69.8 °F - 39.2 °F 33% 30.06 in 10.0 mi South 19.6 mph 26.5 mph N/A   Clear
4:35 PM 68.0 °F - 39.2 °F 35% 30.05 in 10.0 mi SSW 18.4 mph 24.2 mph N/A   Clear
4:55 PM 68.0 °F - 41.0 °F 37% 30.05 in 10.0 mi SSW 18.4 mph 29.9 mph N/A   Clear
5:15 PM 68.0 °F - 41.0 °F 37% 30.04 in 10.0 mi SSW 19.6 mph 27.6 mph N/A   Clear
5:35 PM 68.0 °F - 41.0 °F 37% 30.05 in 10.0 mi SSW 17.3 mph - N/A   Clear
5:55 PM 66.2 °F - 41.0 °F 40% 30.05 in 10.0 mi South 13.8 mph 20.7 mph N/A   Clear
6:15 PM 64.4 °F - 41.0 °F 42% 30.05 in 10.0 mi South 17.3 mph - N/A   Clear
6:35 PM 64.4 °F - 41.0 °F 42% 30.05 in 10.0 mi South 15.0 mph 21.9 mph N/A   Clear
6:55 PM 64.4 °F - 42.8 °F 45% 30.05 in 10.0 mi South 20.7 mph - N/A   Clear
7:15 PM 62.6 °F - 42.8 °F 48% 30.05 in 10.0 mi South 20.7 mph 26.5 mph N/A   Clear
7:35 PM 62.6 °F - 41.0 °F 45% 30.05 in 10.0 mi South 20.7 mph 27.6 mph N/A   Clear
7:55 PM 62.6 °F - 41.0 °F 45% 30.05 in 10.0 mi South 17.3 mph 25.3 mph N/A   Clear
8:15 PM 60.8 °F - 41.0 °F 48% 30.05 in 10.0 mi South 19.6 mph - N/A   Clear
8:35 PM 60.8 °F - 41.0 °F 48% 30.05 in 10.0 mi South 18.4 mph 25.3 mph N/A   Clear
8:55 PM 59.0 °F - 41.0 °F 51% 30.04 in 10.0 mi South 19.6 mph 25.3 mph N/A   Clear
9:15 PM 59.0 °F - 41.0 °F 51% 30.03 in 10.0 mi South 19.6 mph 25.3 mph N/A   Clear
9:35 PM 59.0 °F - 41.0 °F 51% 30.03 in 10.0 mi South 19.6 mph 27.6 mph N/A   Clear
9:55 PM 59.0 °F - 41.0 °F 51% 30.03 in 10.0 mi South 19.6 mph 26.5 mph N/A   Clear
10:15 PM 59.0 °F - 41.0 °F 51% 30.02 in 10.0 mi South 18.4 mph 23.0 mph N/A   Clear
10:35 PM 57.2 °F - 41.0 °F 55% 30.02 in 10.0 mi South 18.4 mph - N/A   Clear
10:55 PM 55.4 °F - 41.0 °F 58% 30.01 in 10.0 mi South 16.1 mph - N/A   Clear
11:15 PM 57.2 °F - 42.8 °F 59% 30.00 in 10.0 mi SSW 18.4 mph - N/A   Clear
11:35 PM 57.2 °F - 42.8 °F 59% 29.99 in 10.0 mi South 17.3 mph - N/A   Clear
11:55 PM 57.2 °F - 42.8 °F 59% 29.99 in 10.0 mi SSW 16.1 mph - N/A   Clear